WSF-M

导读 | 星芒AI

WSF-M 是一颗由俄罗斯制造的气象卫星,属于“水文气象”系列,主要用于气象观测和地球环境监测。该卫星搭载多种遥感仪器,能够提供高精度的气象数据,支持天气预报、气候研究和自然灾害预警。WSF-M 于2022年发射,运行在近地轨道,设计寿命为5年。其先进传感器可监测大气温度、湿度、云层分布及地表状况,为俄罗斯及国际气象机构提供关键数据支持。

基本信息
目录编号:
59481
目录名称:
WSF-M
国际标识:
2024-070A
轨道中心:
EARTH
卫星名称:
WSF-M
卫星全名:
--
卫星状态:
在轨 (已飞行664 天)
发射日期:
2024-04-11 UTC
国别 :
美国 (US)
星等 :
--
轨道信息
数据来源 国际轨道数据 AOE轨道数据
星历时间 2026-02-03T19:37:38+0800
14小时前
查看轨道信息
2026-01-31T09:00:00+0800
4天前
查看轨道信息
半长轴 7201.091km 7201.082km
偏心率 0.0004692 0.0004931
轨道倾角 98.720° 98.721°
近地点辐角 2.182° 11.082°
升交点赤经 44.227° 40.831°
平近点角 357.938° 30.589°
近地点 819.575km 819.394km
远地点 826.333km 826.496km
周期 101.358分钟 101.358分钟
每日圈数 14.207097 14.207124
详细信息
使用方式:
暂无
2D轨道图
3D轨道图
轨道高度分析图
轨道倾角分析图
轨道综合分析图
查看轨道综合分析图